Regional Weather Roundup
Issued by NWS

Home | Current Version | Previous Version | Text Only | Print | Product List | Glossary On
Versions: 1 2 3 4 5 6 7 8 9 10 11 12 13 14 15 16 17 18 19 20 21 22 23 24 25 26 27 28 29 30 31 32 33 34 35 36 37 38 39 40 41 42 43 44 45 46 47 48 49 50
967
ASUS44 KLIX 311801
RWRLA
LOUISIANA WEATHER ROUNDUP
NATIONAL WEATHER SERVICE NEW ORLEANS LA
100 PM CDT FRI OCT 31 2014

NOTE: "FAIR" INDICATES FEW OR NO CLOUDS BELOW 12,000 FEET WITH NO
      SIGNIFICANT WEATHER AND/OR OBSTRUCTIONS TO VISIBILITY.
      SKY/WX - SKY CONDITION AND SIGNIFICANT WEATHER.
      TMP - AIR TEMPERATURE.    DP   - DEWPOINT TEMPERATURE.
      RH  - RELATIVE HUMIDITY.  PRES - PRESSURE.
      HX  - HEAT INDEX.         WCI  - WIND CHILL INDEX.

*  THESE STATIONS ARE NOT NWS OR FAA STATIONS AND ARE NOT UNDER
   NWS QUALITY CONTROL.

LAZ040-048-061>063-065-066-069-311900-
SOUTHEAST LOUISIANA

CITY           SKY/WX    TMP DP  RH WIND       PRES   REMARKS
N.O. AUDUBON     N/A     75  50  40 MISG        N/A
6HR MIN TEMP:  55; 6HR MAX TEMP:  78;

N.O. INTL ARPT MOSUNNY   74  47  38 NW17G23   30.04F
6HR MIN TEMP:  52; 6HR MAX TEMP:  74;

N.O. LAKEFRONT SUNNY     72  53  51 W14       30.03F
6HR MIN TEMP:  65; 6HR MAX TEMP:  72;

N.O. DOWNTOWN* FAIR      73  46  38 N7        30.04F
6HR MIN TEMP:  61; 6HR MAX TEMP:  73;

SLIDELL        SUNNY     75  43  31 N15G21    30.01F
6HR MIN TEMP:  43; 6HR MAX TEMP:  75;

BATON ROUGE    SUNNY     73  42  32 NW10G18   30.07F
6HR MIN TEMP:  47; 6HR MAX TEMP:  74;

BOOTHVILLE     SUNNY     72  48  42 NW12      30.03F
6HR MIN TEMP:  64; 6HR MAX TEMP:  72;

BELLE CHASSE   MOSUNNY   75  43  31 VRB7G17   30.02F
6HR MIN TEMP:  48; 6HR MAX TEMP:  76;

BOGALUSA*        N/A     74  44  34 N8G21     30.03F
6HR MIN TEMP:  42; 6HR MAX TEMP:  75;

NEW ROADS*     FAIR      70  47  42 NW17      30.09F
6HR MIN TEMP:  45; 6HR MAX TEMP:  70;

GONZALES*      FAIR      74  46  36 NW8G17    30.05F
6HR MIN TEMP:  47; 6HR MAX TEMP:  74;

HAMMOND*       NOT AVBL
HOUMA*         SUNNY     75  46  35 NW12      30.04F
PORT FOURCHON* CLEAR     72  50  46 NW12      30.07F

$$

LAZ041-044-053-054-311900-
SOUTHWEST LOUISIANA

CITY           SKY/WX    TMP DP  RH WIND       PRES   REMARKS
LAKE CHARLES   SUNNY     75  45  34 N14       30.13F
6HR MIN TEMP:  53; 6HR MAX TEMP:  75;

LAFAYETTE      SUNNY     75  43  31 N16       30.10F
6HR MIN TEMP:  52; 6HR MAX TEMP:  75;

PATTERSON      SUNNY     73  50  43 NW15      30.10F
6HR MIN TEMP:  48; 6HR MAX TEMP:  73;

SALT POINT       N/A     75  47  36 NW9       30.07F
6HR MIN TEMP:  57; 6HR MAX TEMP:  76;

NEW IBERIA     SUNNY     76  46  34 N15       30.09F
6HR MIN TEMP:  48; 6HR MAX TEMP:  76;

CHENAULT AIRPK SUNNY     73  46  38 N13G21    30.13F

$$

LAZ027-028-311900-
CENTRAL LOUISIANA

CITY           SKY/WX    TMP DP  RH WIND       PRES   REMARKS
FORT POLK      SUNNY     70  46  42 NE8       30.14F
6HR MIN TEMP:  51; 6HR MAX TEMP:  70;

ALEXANDRIA INT SUNNY     71  44  37 N13G23    30.12F
6HR MIN TEMP:  45; 6HR MAX TEMP:  71;

ALEXANDRIA     SUNNY     70  46  42 N12G24    30.12F
6HR MIN TEMP:  45; 6HR MAX TEMP:  70;


$$

LAZ001-002-311900-
NORTHWEST LOUISIANA

CITY           SKY/WX    TMP DP  RH WIND       PRES   REMARKS
SHREVEPORT     MOSUNNY   68  46  45 N16       30.19F
6HR MIN TEMP:  50; 6HR MAX TEMP:  69;

BARKSDALE AFB  SUNNY     68  44  42 N15       30.19F
6HR MIN TEMP:  47; 6HR MAX TEMP:  69;

DTN SHREVEPORT SUNNY     67  44  43 N12G20    30.20F
6HR MIN TEMP:  53; 6HR MAX TEMP:  68;


$$

LAZ014-016-311900-
NORTHEAST LOUISIANA

CITY           SKY/WX    TMP DP  RH WIND       PRES   REMARKS
MONROE         SUNNY     67  47  48 N16       30.15S
6HR MIN TEMP:  51; 6HR MAX TEMP:  67;

TALLULAH       SUNNY     68  47  46 N15G24    30.10F
6HR MIN TEMP:  42; 6HR MAX TEMP:  69;


$$




USA.gov is the U.S. government's official web portal to all federal, state and local government web resources and services.